Date String (YYYY-MM-DD hh:mm:ss) UTC,Instrument flags,absolute air pressure of the measurement (hPa),sample flow rate (lpm),inlet stack bypass flow (lpm),air temperature of the measurement (°C),ambient temperature measured by the external sensor (°C),aerosol sample conditioner tube jacket temperature (°C),OPC LED temperature (°C),internal box temperature (°C),relative humidity of the measurement (%),span deviation,mass concentration of particles derived from Lorenz-Mie calculation of OPC scattering (μg/m³),mass concentration of particles derived from Lorenz-Mie calculation of OPC scattering (μg/m³),mass concentration of particles derived from Lorenz-Mie calculation of OPC scattering (μg/m³)
DateTimeUTC,F1_M11,P_M11,Q1_M11,Q2_M11,T1_M11,T2_M11,T3_M11,T4_M11,T5_M11,U1_M11,ZSPAN_M11,X0_M11,X2_M11,X1_M11
2024-01-08 14:00:00,SystemResetWarning,0821.0,4.99,000.00,018.8,018.0,000.0,027.2,020.0,11.4,0000.0,0005.86,0001.86,0001.30
2024-01-08 14:01:00,SystemResetWarning,0821.0,5.00,000.00,018.8,018.0,000.0,027.2,020.0,11.3,0000.0,0006.06,0001.85,0001.30
2024-01-08 14:02:00,SystemResetWarning,0821.0,5.00,000.00,018.8,018.0,000.0,027.2,020.0,11.3,0000.0,0005.81,0001.86,0001.30
2024-01-08 14:03:00,SystemResetWarning,0821.1,5.01,000.00,018.8,018.0,000.0,027.2,020.0,11.2,0000.0,0006.22,0001.83,0001.29
2024-01-08 14:04:00,SystemResetWarning,0821.1,5.00,000.00,018.8,018.0,000.0,027.2,020.0,11.2,0000.0,0006.22,0001.80,0001.29
2024-01-08 14:05:00,SystemResetWarning,0821.2,5.00,000.00,018.8,018.0,000.0,027.2,020.0,11.2,0000.0,0006.07,0001.75,0001.29
2024-01-08 14:06:00,SystemResetWarning,0821.3,5.00,000.00,018.8,018.0,000.0,027.2,020.0,11.1,0000.0,0006.36,0001.78,0001.30
2024-01-08 14:07:00,SystemResetWarning,0821.3,5.00,000.00,018.8,018.0,000.0,027.2,020.0,11.1,0000.0,0006.67,0001.84,0001.31
2024-01-08 14:08:00,SystemResetWarning,0821.1,5.00,000.00,018.8,018.0,000.0,027.2,020.0,11.1,0000.0,0006.23,0001.86,0001.31
2024-01-08 14:09:00,SystemResetWarning,0821.1,4.99,000.00,018.8,018.0,000.0,027.2,020.0,11.0,0000.0,0006.04,0001.87,0001.31
2024-01-08 14:10:00,SystemResetWarning,0821.2,5.00,000.00,018.8,018.0,000.0,027.2,020.0,11.0,0000.0,0005.72,0001.80,0001.29
2024-01-08 14:11:00,SystemResetWarning,0821.6,5.00,000.00,018.8,018.0,000.0,027.2,020.0,11.0,0000.0,0004.80,0001.76,0001.29
2024-01-08 14:12:00,SystemResetWarning,0821.2,5.01,000.00,018.8,018.0,000.0,027.2,020.0,10.9,0000.0,0004.67,0001.76,0001.28
2024-01-08 14:13:00,SystemResetWarning,0821.2,5.01,000.00,018.8,018.0,000.0,027.2,020.0,10.9,0000.0,0004.29,0001.73,0001.28
2024-01-08 14:14:00,SystemResetWarning,0821.1,5.00,000.00,018.7,018.0,000.0,027.2,020.0,10.9,0000.0,0003.75,0001.72,0001.28
2024-01-08 14:15:00,SystemResetWarning,0821.2,4.99,000.00,018.7,018.0,000.0,027.2,020.0,10.9,0000.0,0003.30,0001.74,0001.28
2024-01-08 14:16:00,SystemResetWarning,0821.2,4.99,000.00,018.7,018.0,000.0,027.2,020.0,10.8,0000.0,0003.27,0001.74,0001.28
2024-01-08 14:17:00,SystemResetWarning,0821.2,5.00,000.00,018.7,018.0,000.0,027.2,020.0,10.7,0000.0,0003.33,0001.75,0001.26
2024-01-08 14:18:00,SystemResetWarning,0821.2,5.00,000.00,018.7,018.0,000.0,027.2,020.0,10.7,0000.0,0003.11,0001.70,0001.25
2024-01-08 14:19:00,SystemResetWarning,0821.2,5.01,000.00,018.7,018.0,000.0,027.2,020.0,10.6,0000.0,0003.19,0001.68,0001.25
2024-01-08 14:20:00,SystemResetWarning,0821.2,5.01,000.00,018.7,018.0,000.0,027.2,020.0,10.6,0000.0,0003.01,0001.65,0001.25
2024-01-08 14:21:00,SystemResetWarning,0821.3,5.00,000.00,018.7,018.0,000.0,027.2,020.0,10.5,0000.0,0002.97,0001.65,0001.25
2024-01-08 14:22:00,SystemResetWarning,0821.3,5.00,000.00,018.7,018.0,000.0,027.2,020.0,10.5,0000.0,0002.89,0001.62,0001.25
2024-01-08 14:23:00,SystemResetWarning,0821.3,4.99,000.00,018.7,018.0,000.0,027.2,020.0,10.4,0000.0,0002.84,0001.60,0001.25
2024-01-08 14:24:00,SystemResetWarning,0821.3,5.00,000.00,018.7,018.0,000.0,027.2,020.0,10.4,0000.0,0002.93,0001.62,0001.25
2024-01-08 14:25:00,SystemResetWarning,0821.3,5.00,000.00,018.7,017.9,000.0,027.2,020.0,10.3,0000.0,0003.35,0001.65,0001.26
2024-01-08 14:26:00,SystemResetWarning,0821.4,5.00,000.00,018.8,018.0,000.0,027.2,020.2,10.3,0000.0,0003.37,0001.64,0001.26
2024-01-08 14:27:00,SystemResetWarning,0821.8,5.00,000.00,018.9,018.6,000.0,027.2,020.6,10.2,0000.0,0003.60,0001.66,0001.26
2024-01-08 14:28:00,SystemResetWarning,0822.0,5.01,000.00,019.0,019.0,000.0,027.2,020.8,10.1,0000.0,0003.45,0001.66,0001.27
2024-01-08 14:29:00,SystemResetWarning,0822.0,5.00,000.00,019.0,019.0,000.0,027.2,020.5,10.0,0000.0,0003.33,0001.65,0001.27
2024-01-08 14:30:00,SystemResetWarning,0822.0,5.00,000.00,019.0,018.9,000.0,027.2,020.4,10.0,0000.0,0003.14,0001.64,0001.27
2024-01-08 14:31:00,SystemResetWarning,0821.5,5.00,000.00,019.0,018.7,000.0,027.2,020.3,10.0,0000.0,0003.12,0001.63,0001.26
2024-01-08 14:32:00,SystemResetWarning,0821.6,5.00,000.00,019.0,018.6,000.0,027.2,020.3,10.0,0000.0,0003.20,0001.66,0001.26
2024-01-08 14:33:00,SystemResetWarning,0821.6,4.99,000.00,019.0,018.6,000.0,027.2,020.2,10.0,0000.0,0003.37,0001.69,0001.26
2024-01-08 14:34:00,SystemResetWarning,0821.6,5.02,000.00,019.0,018.5,000.0,027.2,020.1,10.0,0000.0,0003.63,0001.72,0001.26
2024-01-08 14:35:00,SystemResetWarning,0821.6,5.00,000.00,018.9,018.4,000.0,027.2,020.0,10.0,0000.0,0004.12,0001.73,0001.27
2024-01-08 14:36:00,SystemResetWarning,0821.6,5.01,000.00,018.9,018.3,000.0,027.2,020.0,10.0,0000.0,0003.75,0001.72,0001.28
2024-01-08 14:37:00,SystemResetWarning,0821.6,5.00,000.00,018.9,018.3,000.0,027.2,020.0,10.1,0000.0,0003.67,0001.73,0001.28
2024-01-08 14:38:00,SystemResetWarning,0821.7,4.99,000.00,018.9,018.2,000.0,027.2,020.0,10.1,0000.0,0003.81,0001.76,0001.29
2024-01-08 14:39:00,SystemResetWarning,0821.7,4.98,000.00,018.9,018.1,000.0,027.2,020.0,10.1,0000.0,0003.89,0001.76,0001.30
2024-01-08 14:40:00,SystemResetWarning,0821.7,5.01,000.00,018.9,018.1,000.0,027.2,020.0,10.2,0000.0,0003.80,0001.73,0001.30
2024-01-08 14:41:00,SystemResetWarning,0821.8,5.01,000.00,018.8,018.0,000.0,027.3,020.0,10.2,0000.0,0003.76,0001.73,0001.30
2024-01-08 14:42:00,SystemResetWarning,0821.8,5.00,000.00,018.8,018.0,000.0,027.3,020.0,10.3,0000.0,0003.73,0001.71,0001.31
2024-01-08 14:43:00,SystemResetWarning,0821.8,4.99,000.00,018.8,018.0,000.0,027.2,020.0,10.3,0000.0,0003.78,0001.73,0001.31
2024-01-08 14:44:00,SystemResetWarning,0821.8,4.99,000.00,018.8,018.0,000.0,027.2,020.0,10.3,0000.0,0003.62,0001.70,0001.31
2024-01-08 14:45:00,SystemResetWarning,0821.8,5.01,000.00,018.8,018.0,000.0,027.2,020.0,10.4,0000.0,0003.35,0001.66,0001.31
2024-01-08 14:46:00,SystemResetWarning,0821.9,5.01,000.00,018.8,018.0,000.0,027.2,020.0,10.4,0000.0,0003.45,0001.62,0001.31
2024-01-08 14:47:00,SystemResetWarning,0822.0,4.99,000.00,018.8,018.0,000.0,027.2,020.0,10.5,0000.0,0003.81,0001.61,0001.30
2024-01-08 14:48:00,SystemResetWarning,0822.0,5.00,000.00,018.8,018.0,000.0,027.2,020.0,10.5,0000.0,0003.75,0001.58,0001.30
2024-01-08 14:49:00,SystemResetWarning,0822.0,5.00,000.00,018.8,018.0,000.0,027.2,020.0,10.5,0000.0,0004.19,0001.57,0001.30
2024-01-08 14:50:00,SystemResetWarning,0821.9,5.00,000.00,018.8,018.0,000.0,027.2,020.0,10.6,0000.0,0005.01,0001.61,0001.31
2024-01-08 14:51:00,SystemResetWarning,0821.9,5.00,000.00,018.8,018.0,000.0,027.2,020.0,10.6,0000.0,0005.13,0001.65,0001.33
2024-01-08 14:52:00,SystemResetWarning,0821.9,5.01,000.00,018.8,018.0,000.0,027.2,020.0,10.6,0000.0,0005.17,0001.66,0001.35
2024-01-08 14:53:00,SystemResetWarning,0821.9,5.01,000.00,018.8,018.0,000.0,027.2,020.0,10.6,0000.0,0005.20,0001.66,0001.36
2024-01-08 14:54:00,SystemResetWarning,0822.0,5.00,000.00,018.8,018.0,000.0,027.2,020.0,10.6,0000.0,0005.18,0001.68,0001.38
2024-01-08 14:55:00,SystemResetWarning,0821.9,5.00,000.00,018.8,018.0,000.0,027.2,020.0,10.7,0000.0,0005.31,0001.74,0001.41
2024-01-08 14:56:00,SystemResetWarning,0822.0,5.00,000.00,018.8,018.0,000.0,027.2,020.0,10.7,0000.0,0005.44,0001.80,0001.43
2024-01-08 14:57:00,SystemResetWarning,0821.9,4.99,000.00,018.7,017.9,000.0,027.2,020.0,10.7,0000.0,0005.07,0001.87,0001.44
2024-01-08 14:58:00,SystemResetWarning,0822.0,5.00,000.00,018.7,017.9,000.0,027.2,020.0,10.7,0000.0,0004.78,0001.90,0001.45
2024-01-08 14:59:00,SystemResetWarning,0822.0,4.99,000.00,018.8,017.9,000.0,027.2,020.0,10.7,0000.0,0004.83,0001.93,0001.47
